Ketchikan, AK

5:43 AM AKST on December 18, 2018 (GMT -0900)
Ketchikan International

Weather History for PAKT - October, 2017

Change the Weather History Date:

Tuesday, October 24, 2017

  Actual Average Record
Temperature  
Mean Temperature 46 °F -  
Max Temperature 48 °F 50 °F 64 °F (1980)
Min Temperature 43 °F 39 °F 28 °F (1951)
Degree Days  
Heating Degree Days 20    
Moisture  
Dew Point 45 °F    
Average Humidity 93    
Maximum Humidity 97    
Minimum Humidity 82    
Precipitation  
Precipitation 0.77 in - - ()
Sea Level Pressure  
Sea Level Pressure 30.04 in    
Wind  
Wind Speed 4 mph (SSW)    
Max Wind Speed 14 mph    
Max Gust Speed 24 mph    
Visibility 8 miles    
Events Rain    
Averages and records for this station are not official NWS values.
T = Trace of Precipitation, MM = Missing Value Source: NWS Daily Summary

Daily Weather History Graph

Daily Weather History Graph

Search for Another Location

Airport or City:

Astronomy

Oct. 24, 2017 Rise Set
Actual Time 7:36 AM AKDT 5:24 PM AKDT
Civil Twilight 6:58 AM AKDT 6:02 PM AKDT
Nautical Twilight 6:15 AM AKDT 6:45 PM AKDT
Astronomical Twilight 5:33 AM AKDT 7:27 PM AKDT
Moon 12:29 PM AKDT (10/24) 8:36 PM AKDT (10/24)
Length of Visible Light 11h 04m
Length of Day
9h 48m
Waxing Crescent, 22% of the Moon is Illuminated
Oct 24
Waxing Crescent
Oct 27
First Quarter
Nov 3
Full
Nov 10
Last Quarter
Nov 18
New

Hourly Weather History & Observations

Time (AKDT) Temp. Windchill Dew Point Humidity Pressure Visibility Wind Dir Wind Speed Gust Speed Precip Events Conditions
12:53 AM 48.0 °F - 46.0 °F 93% 30.26 in 10.0 mi Calm Calm - 0.00 in   Overcast
1:15 AM 48.0 °F - 46.9 °F 96% 30.26 in 10.0 mi SSE 3.5 mph - N/A   Overcast
1:24 AM 48.0 °F - 46.9 °F 96% 30.27 in 10.0 mi SSW 3.5 mph - N/A   Overcast
1:53 AM 48.0 °F - 46.9 °F 96% 30.30 in 10.0 mi Calm Calm - N/A   Overcast
2:53 AM 48.0 °F - 46.9 °F 96% 30.30 in 10.0 mi Calm Calm - N/A   Overcast
3:53 AM 48.0 °F - 46.9 °F 96% 30.29 in 10.0 mi SSE 5.8 mph - N/A   Overcast
4:32 AM 48.0 °F - 46.9 °F 96% 30.30 in 10.0 mi South 4.6 mph - N/A   Overcast
4:53 AM 48.0 °F - 46.9 °F 96% 30.30 in 10.0 mi Calm Calm - N/A   Overcast
5:04 AM 48.0 °F - 46.9 °F 96% 30.30 in 10.0 mi Calm Calm - N/A   Overcast
5:17 AM 48.0 °F - 46.9 °F 96% 30.30 in 10.0 mi Calm Calm - N/A   Overcast
5:32 AM 48.0 °F - 46.9 °F 96% 30.30 in 10.0 mi South 3.5 mph - N/A   Overcast
5:53 AM 48.0 °F - 46.9 °F 96% 30.31 in 10.0 mi South 3.5 mph - N/A   Overcast
6:08 AM 48.2 °F - 46.4 °F 93% 30.28 in 10.0 mi Calm Calm - N/A   Overcast
6:53 AM 48.2 °F - 46.4 °F 93% 30.25 in 10.0 mi South 5.8 mph - N/A   Overcast
7:53 AM 48.2 °F - 46.4 °F 93% 30.24 in 10.0 mi SSE 11.5 mph - N/A   Overcast
8:53 AM 48.2 °F - 46.4 °F 93% 30.20 in 10.0 mi SSE 11.5 mph - N/A   Mostly Cloudy
9:53 AM 48.2 °F - 46.4 °F 93% 30.18 in 10.0 mi SSE 8.1 mph - N/A Rain Light Rain
10:53 AM 48.2 °F - 46.4 °F 93% 30.13 in 6.0 mi South 6.9 mph - N/A Rain Light Rain
11:53 AM 46.4 °F 45.2 °F 44.6 °F 93% 30.06 in 4.0 mi SSE 3.5 mph - N/A Rain Light Rain
12:53 PM 46.4 °F 42.9 °F 42.8 °F 87% 29.99 in 6.0 mi South 6.9 mph - N/A Rain Light Rain
1:53 PM 45.0 °F - 43.0 °F 93% 29.91 in 5.0 mi Calm Calm - 0.05 in Rain Light Rain
2:53 PM 45.0 °F 41.8 °F 43.0 °F 93% 29.85 in 7.0 mi NW 5.8 mph - 0.04 in Rain Light Rain
3:53 PM 45.0 °F 41.8 °F 43.0 °F 93% 29.76 in 5.0 mi North 5.8 mph - 0.12 in Rain Rain
4:53 PM 44.1 °F - 43.0 °F 96% 29.70 in 4.0 mi Calm Calm - 0.13 in Rain Rain
5:53 PM 44.1 °F 42.5 °F 43.0 °F 96% 29.62 in 4.0 mi South 3.5 mph - 0.07 in Rain Light Rain
6:53 PM 45.0 °F - 44.1 °F 97% 29.61 in 4.0 mi Calm Calm - 0.10 in Rain Light Rain
7:53 PM 44.1 °F 37.4 °F 43.0 °F 96% 29.64 in 4.0 mi NW 13.8 mph 24.2 mph 0.21 in Rain Rain
8:53 PM 44.1 °F 37.7 °F 41.0 °F 89% 29.65 in 10.0 mi NW 12.7 mph 20.7 mph 0.04 in   Overcast
9:53 PM 43.0 °F 37.7 °F 39.9 °F 89% 29.71 in 10.0 mi NW 9.2 mph - 0.00 in   Overcast
10:44 PM 43.0 °F 38.8 °F 41.0 °F 93% 29.76 in 10.0 mi NW 6.9 mph - N/A   Overcast
10:53 PM 44.1 °F 39.5 °F 39.9 °F 85% 29.77 in 10.0 mi NW 8.1 mph - N/A   Overcast
11:39 PM 44.1 °F 39.0 °F 39.9 °F 85% 29.82 in 10.0 mi WNW 9.2 mph - 0.01 in   Overcast
11:53 PM 44.1 °F 39.0 °F 39.0 °F 82% 29.84 in 10.0 mi WNW 9.2 mph 18.4 mph 0.01 in   Overcast